2021/07/26,63100,63100,63100,63100
2021/07/27,63100,63100,63100,63100
2021/07/28,63100,63100,63100,63100
2021/07/29,63100,63100,63100,63100
2021/07/30,63100,63100,63100,63100
2021/08/02,63100,63100,63100,63100
2021/08/03,63100,63100,63100,63100
2021/08/04,63100,63100,63100,63100
2021/08/05,63100,63100,63100,63100
2021/08/06,63100,63100,63100,63100
2021/08/10,64400,64400,64200,64200
2021/08/11,64200,64200,64200,64200
2021/08/12,64200,64200,64200,64200
2021/08/13,64200,64200,64200,64200
2021/08/16,64200,64200,64200,64200
2021/08/17,64200,64200,64200,64200
2021/08/18,64200,64200,64200,64200
2021/08/19,64200,64200,64200,64200
2021/08/20,64200,64200,64200,64200
2021/08/23,64200,64200,64200,64200
2021/08/24,64200,64200,64200,64200
2021/08/25,64200,64200,64200,64200
2021/08/26,64200,64200,64200,64200
2021/08/27,64200,64200,64200,64200
2021/08/30,64200,64200,64200,64200
2021/08/31,64200,64200,64200,64200
2021/09/01,64200,64200,64200,64200
2021/09/02,64200,64200,64200,64200
2021/09/03,64200,64200,64200,64200
2021/09/06,64200,64200,64200,64200
2021/09/07,64200,64200,64200,64200
2021/09/08,64200,64200,64200,64200
2021/09/09,64200,64200,64200,64200
2021/09/10,64100,64100,64100,64100
2021/09/13,64100,64100,64100,64100
2021/09/14,64100,64100,64100,64100
2021/09/15,64100,64100,64100,64100
2021/09/16,64100,64100,64100,64100
2021/09/17,64100,64100,64100,64100
2021/09/24,65500,65500,65500,65500
2021/09/27,66900,66900,66900,66900
2021/09/28,67200,67200,67200,67200
2021/09/29,67200,67200,67200,67200
2021/09/30,67200,67200,67200,67200
2021/10/01,67200,67200,67200,67200
2021/10/04,67200,67200,67200,67200
2021/10/05,67900,67900,67900,67900
2021/10/06,67900,67900,67900,67900
2021/10/07,67900,67900,67900,67900
2021/10/08,69200,69200,69200,69200
2021/10/11,71000,71000,71000,71000
2021/10/12,72000,72000,72000,72000
2021/10/13,72000,72000,72000,72000
2021/10/14,72000,72000,72000,72000
2021/10/15,72000,72000,72000,72000
2021/10/18,72000,72000,72000,72000
2021/10/19,72000,72000,72000,72000
2021/10/20,72000,72000,72000,72000
2021/10/21,72000,72000,72000,72000
2021/10/22,72000,72000,72000,72000
2021/10/25,72000,72000,72000,72000
2021/10/26,73000,73000,73000,73000
2021/10/27,73000,73000,73000,73000
2021/10/28,73000,73000,73000,73000
2021/10/29,74200,74200,74200,74200
2021/11/01,75100,75100,75100,75100
2021/11/02,75100,75100,75100,75100
2021/11/04,75100,75100,75100,75100
2021/11/05,75100,75100,75100,75100
2021/11/08,75100,75100,75100,75100
2021/11/09,75100,75100,75100,75100
2021/11/10,75100,75100,75100,75100
2021/11/11,75100,75100,75100,75100
2021/11/12,75100,75100,75100,75100
2021/11/15,75100,75100,75100,75100
2021/11/16,75100,75100,75100,75100
2021/11/17,74600,74600,74400,74400
2021/11/18,74300,74300,74100,74100
2021/11/19,74100,74100,74100,74100
2021/11/22,74100,74100,74100,74100
2021/11/24,74100,74100,74100,74100
2021/11/25,74100,74100,74100,74100
2021/11/26,74100,74100,74100,74100
2021/11/29,71100,71100,71100,71100
2021/11/30,71100,71100,71100,71100
2021/12/01,68000,68000,68000,68000
2021/12/02,68000,68000,68000,68000
2021/12/03,68000,68000,68000,68000
2021/12/06,68000,68000,68000,68000
2021/12/07,68000,68000,68000,68000
2021/12/08,68000,68000,68000,68000
2021/12/09,68000,68000,68000,68000
2021/12/10,68000,68000,68000,68000
2021/12/13,68000,68000,68000,68000
2021/12/14,68400,68400,68400,68400
2021/12/15,68000,68000,68000,68000
2021/12/16,68000,68000,68000,68000
2021/12/17,68000,68000,68000,68000
2021/12/20,68300,68300,68000,68000
2021/12/21,68000,68000,68000,68000
2021/12/22,68000,68000,68000,68000
2021/12/23,68000,68000,68000,68000
2021/12/24,69800,69800,69800,69800
2021/12/27,69800,69800,69800,69800
2021/12/28,70300,70700,70300,70700
2021/12/29,70700,70700,70700,70700
2021/12/30,72000,72000,72000,72000
2022/01/04,72000,72000,72000,72000
2022/01/05,72000,72000,72000,72000
2022/01/06,72000,72000,72000,72000
2022/01/07,74500,74500,74500,74500
2022/01/11,74500,74500,74500,74500
2022/01/12,77000,77000,77000,77000
2022/01/13,77000,77000,77000,77000
2022/01/14,77000,77000,77000,77000
2022/01/17,77000,77000,77000,77000
2022/01/18,77000,77000,77000,77000
2022/01/19,77500,77500,77500,77500
2022/01/20,79000,79000,77900,79000
2022/01/21,79500,79500,78000,79000
2022/01/24,78900,79000,78500,79000
2022/01/25,77000,77000,77000,77000
